Location: Occidental Observatory
(38.4214°N, 122.9202°W)
Time: 22:35:24
(UTC-07:00)

Daily predictions for brighter satellites

Satellite Brightness Start Highest point End
(mag) Time Altitude Azimuth Time Altitude Azimuth Time Altitude Azimuth
BREEZE-M DEB (TANK) 3.7 20:03:52 10° SW 20:07:13 80° SE 20:17:58 10° NE
Cosmos 2227 Rocket 2.4 20:03:08 10° NNW 20:08:49 77° WSW 20:14:27 10° SSE
Cosmos 2298 Rocket 4.4 20:04:20 10° N 20:09:26 45° ENE 20:14:31 10° SE
CZ-2D R/B 4.2 20:07:32 10° SE 20:10:54 29° ENE 20:14:18 10° N
Cosmos 2322 Rocket 3.9 20:10:16 10° ESE 20:11:13 10° E 20:12:11 10° E
Cosmos 1934 Rocket 4.2 20:08:54 10° S 20:15:02 78° W 20:21:20 10° N
Cosmos 1975 3.0 20:12:13 10° S 20:16:13 55° E 20:20:14 10° NNE
Lacrosse 5 rocket 2.6 20:14:24 10° WNW 20:17:47 34° SW 20:21:04 10° SSE
Resurs 01 Rocket 1.8 20:13:24 10° S 20:17:50 81° WSW 20:22:19 10° NNW
HJ-1C 3.9 20:18:08 10° S 20:21:24 62° W 20:24:41 10° NNW
Cosmos 2297 Rocket 2.3 20:17:38 10° NNW 20:23:19 82° WSW 20:28:57 10° SSE
Cosmos 1763 Rocket 4.2 20:19:33 10° SSE 20:23:52 28° E 20:28:10 10° NE
Cosmos 1515 4.0 20:22:19 10° N 20:26:01 44° E 20:29:41 10° SSE
Cosmos 2082 4.4 20:21:42 10° NNW 20:27:12 57° WSW 20:32:41 10° S
EO 1 Delta rocket 4.2 20:22:35 10° NNE 20:27:29 61° E 20:33:23 10° S
FengYun 1-2 T 4.3 20:25:54 10° SSE 20:31:32 89° WSW 20:37:10 10° NNW
Cosmos 1153 Rocket 4.4 20:25:53 10° S 20:31:59 68° E 20:38:05 10° NNE
Cosmos 2084 3.6 20:29:08 10° NW 20:33:14 72° WSW 20:37:32 10° SSE
Cosmos 2150 Rocket 4.0 20:28:51 10° NNW 20:33:59 65° ENE 20:39:08 10° SSE
Cosmos 1898 Rocket 3.5 20:35:42 10° NNW 20:41:01 81° ENE 20:46:15 10° SSE
Cosmos 1743 3.1 20:42:46 10° SSE 20:46:26 41° E 20:50:08 10° NNE
Cosmos 468 Rocket 4.1 20:41:28 10° SSW 20:46:34 78° WNW 20:51:44 10° NNE
CZ-4B DEB 3.5 20:44:56 10° S 20:48:09 55° W 20:51:24 10° NNW
H-2A R/B 3.8 20:49:17 14° ENE 20:49:48 15° ENE 20:52:05 10° NNE
Cosmos 841 Rocket 3.7 20:45:05 10° S 20:50:02 45° ESE 20:55:00 10° NNE
Cosmos 1802 Rocket 4.3 20:44:57 10° SSE 20:51:01 48° E 20:57:08 10° NNE
Cosmos 2016 Rocket 4.4 20:47:14 10° SSE 20:52:51 40° E 20:58:34 10° NNE
Cosmos 1626 Rocket 4.1 20:48:47 10° NNW 20:53:05 59° W 20:57:21 10° S
Cosmos 1697 Rocket 3.2 20:48:17 10° SSW 20:53:53 65° WNW 20:59:30 10° NNE
CZ-3C R/B 4.2 19:49:23 10° W 20:54:12 39° SSW 21:02:34 14° SSE
USA 186 1.5 20:56:22 16° S 20:58:35 80° W 21:01:20 10° NNW
Cosmos 1939 Rocket 3.9 20:58:21 26° E 20:59:29 30° ENE 21:03:08 10° N
Cosmos 1814 Rocket 4.4 20:56:29 10° SSW 21:01:48 68° WNW 21:07:05 10° NNE
Cosmos 2173 Rocket 4.0 20:58:01 10° S 21:04:19 71° E 21:10:36 10° NNE
SJ-11-01 4.5 21:03:11 25° SE 21:05:41 51° ENE 21:10:13 10° N
Cosmos 1066 Rocket 4.3 21:00:12 10° N 21:05:58 85° W 21:11:48 10° S
Lacrosse 5 2.2 21:01:07 10° NW 21:06:06 61° SW 21:09:26 21° SSE
Cosmos 1758 Rocket 4.2 21:03:21 10° N 21:07:19 35° ENE 21:08:07 32° ESE
SL-16 R/B 2.7 21:04:57 10° S 21:10:03 36° ESE 21:15:10 10° NE
Cosmos 546 4.5 21:08:18 10° SW 21:12:13 75° SE 21:14:20 26° ENE
Cosmos 967 Rocket 4.4 21:06:25 10° NNW 21:12:46 74° ENE 21:16:23 27° SE
Iridium 4 Rocket 3.9 21:10:30 10° N 21:15:11 54° W 21:19:28 10° SSW
YAOGAN 11 4.1 21:13:22 31° SE 21:15:25 65° ENE 21:19:50 10° N
SPOT 5 3.9 21:15:53 27° E 21:16:22 27° ENE 21:20:20 10° NNE
H-2A R/B 4.0 21:13:17 10° S 21:17:00 42° W 21:20:46 10° NNW
Cosmos 1980 Rocket 2.6 21:13:14 10° SSW 21:18:52 67° WNW 21:24:33 10° NNE
ALOS 3.6 21:15:48 10° SSW 21:20:08 38° W 21:24:30 10° NNW
CZ-4 DEB 2.5 21:20:23 73° ENE 21:20:23 73° ENE 21:23:32 10° N
Cosmos 1666 2.9 21:23:52 49° ENE 21:23:52 49° ENE 21:27:12 10° NNE
Cosmos 2100 Rocket 4.2 21:18:31 10° SSW 21:24:46 73° W 21:31:00 10° N
Tiangong 1 1.9 21:22:16 10° W 21:25:01 41° SW 21:25:01 41° SW
deb Chang Zheng 4 4.2 21:21:49 10° NNE 21:25:22 38° ENE 21:25:22 38° ENE
RESURS DK-1 3.7 21:23:08 10° NW 21:26:58 37° WSW 21:29:31 18° SSW
Cosmos 1842 3.6 21:26:11 10° N 21:29:33 47° ENE 21:29:33 47° ENE
Envisat 2.9 21:33:04 44° SE 21:34:37 71° ENE 21:39:41 10° N
Cosmos 1606 Rocket 3.8 21:30:56 11° SSW 21:35:07 71° W 21:39:33 10° N
OAO 2 Rocket 3.9 21:30:27 10° W 21:35:08 41° SSW 21:35:52 38° S
Cosmos 2058 Rocket 3.0 21:36:36 52° SSE 21:37:38 76° E 21:42:09 10° N
Cosmos 1340 3.2 21:36:27 10° NNW 21:40:11 55° W 21:41:02 43° SW
Tsikada Rocket 4.1 21:35:18 10° N 21:41:38 58° E 21:43:16 45° SE
Cosmos 2263 Rocket 3.1 21:38:37 10° N 21:43:34 32° ENE 21:43:45 32° ENE
ERS-1 Rocket 3.3 21:49:02 35° SSW 21:51:02 62° WSW 21:56:01 10° NNW
MetOp-A 4.1 21:53:57 60° E 21:54:11 61° ENE 21:59:28 10° N
Cosmos 2322 Rocket 2.1 21:48:46 10° SSW 21:54:23 88° WNW 22:00:02 10° NNE
Cosmos 1725 Rocket 3.9 21:52:15 31° S 21:55:27 86° E 22:01:44 10° N
Cosmos 1726 Rocket 4.5 21:54:12 20° SW 21:56:55 47° W 22:01:12 10° N
H-2A R/B 3.7 22:15:46 21° NNE 22:15:46 21° NNE 22:17:57 10° NNE
Cosmos 2233 Rocket 3.8 22:15:11 76° E 22:15:15 76° E 22:21:30 10° N
Cosmos 2228 4.2 22:22:03 41° NW 22:22:03 41° NW 22:25:22 10° N
Meteor 2-5 Rocket 4.3 22:17:36 10° N 22:22:18 49° NE 22:22:18 49° NE
ASTEX 1 4.1 22:18:57 10° N 22:23:47 51° W 22:24:18 49° WSW
H-2A R/B 3.4 22:26:26 36° WNW 22:26:26 36° WNW 22:29:24 10° NNW
Cosmos 1125 Rocket 4.2 22:24:15 10° NNW 22:29:06 49° W 22:29:06 49° W
Cosmos 540 Rocket 4.1 22:31:34 51° WNW 22:31:48 52° WNW 22:36:48 10° N
SPOT 1/Viking Rocket 4.1 22:34:36 53° NNW 22:34:36 53° NNW 22:38:35 10° NNW
ARGOS 3.8 22:43:27 53° NNW 22:43:27 53° NNW 22:47:33 10° NNW
BREEZE-M DEB (TANK) 3.8 22:27:37 10° WNW 22:43:40 70° NNE 22:43:51 70° NE
Cosmos 1844 Rocket 4.5 22:49:20 10° N 22:52:00 22° NNE 22:52:00 22° NNE
SL-16 R/B 3.9 22:49:10 10° WSW 22:54:08 31° WNW 22:59:08 10° N
Terra 3.9 23:04:51 22° N 23:04:51 22° N 23:06:32 10° N
BREEZE-M DEB (TANK) 4.2 22:36:38 10° WNW 23:02:06 80° NNE 23:02:35 77° ENE
Cosmos 2360 Rocket 3.7 23:05:59 30° N 23:05:59 30° N 23:08:50 10° NNE
Cosmos 2263 Rocket 4.0 23:22:29 10° NW 23:25:27 26° WNW 23:25:27 26° WNW
